Miscellaneous Local Product
Issued by NWS Hastings, NE

Home | Current Version | Previous Version | Text Only | Print | Product List | Glossary Off
Versions: 1 2 3 4 5 6 7 8 9 10 11 12 13 14 15 16 17 18 19 20 21 22 23 24 25 26 27 28 29 30 31 32 33 34 35 36 37 38 39 40 41 42 43 44 45 46 47 48 49 50

000
AXUS43 KGID 191302
MISGRI

GID CWA HOURLY WEATHER ROUNDUP
NATIONAL WEATHER SERVICE HASTINGS NE
700 AM CST MON FEB 19 2018

NOTE: "FAIR" INDICATES FEW OR NO CLOUDS BELOW 12,000 FEET WITH NO
SIGNIFICANT WEATHER AND/OR OBSTRUCTIONS TO VISIBILITY.

...SOUTH CENTRAL NEBRASKA...

CITY           SKY/WX    TMP DP  RH WIND       PRES   REMARKS
GRAND ISLAND   FLURRIES  16  12  84 N22G33    29.81R WCI  -2
KEARNEY        FLURRIES  15  12  88 MISG      29.80S
HASTINGS       CLOUDY    17  13  84 N18G29    29.81R WCI   1
ORD            LGT SNOW  13   9  84 N23G31    29.83R FOG     WCI  -6
YORK           PTCLDY    19  19 100 N18G26    29.78R WCI   4
AURORA         CLOUDY    17  14  86 N21G26    29.80R WCI   0
LEXINGTON      FLURRIES  16  11  81 N20       29.81F WCI  -1
HOLDREGE       FLURRIES  16  13  90 N20G26    29.79S WCI  -1
HEBRON         CLOUDY    22  20  91 N17G23    29.78S FOG     WCI   8

...NEBRASKA PANHANDLE...

CITY           SKY/WX    TMP DP  RH WIND       PRES   REMARKS
CHADRON        LGT SNOW   3  -2  79 NE10      29.92S WCI -12
ALLIANCE       CLOUDY     4   1  88 N14       29.82S WCI -14
SCOTTSBLUFF    LGT SNOW   6   0  76 NE10      29.83S WCI  -9
SIDNEY         LGT SNOW   7   4  87 N16       29.79R FOG     WCI -11

...WESTERN AND NORTH CENTRAL NEBRASKA...

CITY           SKY/WX    TMP DP  RH WIND       PRES   REMARKS
VALENTINE      LGT SNOW   8   2  76 N22       29.91F WCI -12
AINSWORTH      LGT SNOW   9   6  89 N24       29.89F WCI -12
ONEILL         MIX PCPN  12   9  89 N22G30    29.86R WCI  -7
BROKEN BOW     FLURRIES  13   8  81 N23       29.82R WCI  -6
IMPERIAL       FLURRIES  13  10  88 N20       29.83R WCI  -5
NORTH PLATTE   LGT SNOW  13   8  81 N13       29.82S WCI  -2
MCCOOK         CLOUDY    16  11  80 N20       29.82R WCI  -1

...EASTERN NEBRASKA...

CITY           SKY/WX    TMP DP  RH WIND       PRES   REMARKS
NORFOLK        FLURRIES  17  14  88 N18G36    29.80S WCI   1
SO SIOUX CITY  LGT SNOW  20  18  92 N24G30    29.82R FOG     WCI   3
TEKAMAH        FRZ RAIN  23  21  92 N29G38    29.77R WCI   6
COLUMBUS       CLOUDY    20  17  88 N21G30    29.80R WCI   4
ALBION         LGT SNOW  16  11  83 N14G21    29.82R WCI   1
OMAHA EPPLEY   FRZ DRZL  28  26  92 N18G29    29.72R WCI  15
OFFUTT AFB     FRZ DRZL  29  27  93 N16       29.71R WCI  17
MILLARD        CLOUDY    28  25  90 NW10G23   29.75R FOG     WCI  18
LINCOLN        FLURRIES  24  21  88 N21G35    29.77R WCI   9
NEBRASKA CITY  CLOUDY    30  30 100 N18G26    29.67R FOG     WCI  18
BEATRICE       CLOUDY    27  26  96 N21G28    29.73R FOG     WCI  13
FALLS CITY     CLOUDY    33  32  96 NW18G29   29.64R WCI  22

...NORTHERN KANSAS...

CITY           SKY/WX    TMP DP  RH WIND       PRES   REMARKS
GOODLAND       FLURRIES  14  10  84 N16       29.77R WCI  -2
HILL CITY      CLOUDY    21  18  88 N16G26    29.81R WCI   7
NORTON         CLOUDY    18  12  79 N17       29.80R WCI   2
PHILLIPSBURG   CLOUDY    21  16  79 NW16G23   29.83R WCI   7
SMITH CENTER   CLOUDY    18  16  93 N17       29.80R WCI   2
BELOIT         CLOUDY    21  19  93 N20G26    29.78R FOG     WCI   6
HAYS           CLOUDY    22  18  85 N23G29    29.79R WCI   6
RUSSELL        CLOUDY    25  22  88 N21       29.76R WCI  11
CONCORDIA      CLOUDY    23  21  92 N22G35    29.74S WCI   8
SALINA         CLOUDY    30  27  88 N23       29.75R WCI  17
TOPEKA         CLOUDY    64  60  87 S10       29.59F



USA.gov is the U.S. government's official web portal to all federal, state and local government web resources and services.